Location: Bois de la Silve
(44.4667°N, 6.7833°E)
Time: 04:05:34
(UTC+00:00)

Landsat 5 - Pass Details

Date: 14 July 2020
Orbit: 529 x 654 km, 98.2° (Epoch: 06 August)

Event Time Altitude Azimuth Distance (km) Brightness Sun altitude
Rises 03:06:38 0° 168° (SSE) 2,722 6.6 -8.7°
Reaches altitude 10° 03:08:46 10° 170° (S) 1,817 5.7 -8.4°
Maximum altitude 03:12:41 79° 257° (WSW) 555 3.2 -7.9°
Drops below altitude 10° 03:16:32 10° 344° (NNW) 1,792 6.3 -7.3°
Sets 03:18:38 0° 346° (NNW) 2,682 7.2 -7.1°
